Location: Gleizolles
(44.4833°N, 6.7667°E)
Time: 00:07:47
(UTC+00:00)

Vanguard 2 Rocket - Pass Details

Date: 21 June 2024
Orbit: 555 x 3302 km, 32.9° (Epoch: 24 July)

Event Time Altitude Azimuth Distance (km) Brightness Sun altitude
Rises 05:55:21 0° 267° (W) 7,263 10.9 19.7°
Reaches altitude 10° 06:00:41 10° 263° (W) 6,120 10.6 20.6°
Maximum altitude 06:17:48 48° 198° (SSW) 3,003 9.6 23.6°
Drops below altitude 10° 06:28:48 10° 128° (SE) 4,046 11.0 25.6°
Sets 06:31:33 0° 122° (ESE) 4,720 11.3 26.0°
